^^
Meteo Knjazevac Station Historical Data
 
Daily Summary for May 31, 2020 Units:  Metric    English   Both
Daily Weekly Monthly Yearly Custom
  Current: High: Low: Average:
Temperature: 11 °C 12.7 °C 11 °C 11.9 °C
Dew Point: 9.9 °C 10.8 °C 9.9 °C 10.3 °C
Humidity: 93% 93% 88% 90%
Wind Speed: 0km/h 3.2km/h 0km/h 1.3km/h
Wind Gust: 0km/h 9.7km/h - -
WindCalm - - SSE
Pressure: 1017.8 hPa 1018.8 hPa 1017.8 hPa -
Precipitation: 0 mm      
Historical Graphs
 
 
Tabular Data for May 31, 2020
Time Temperature Dew Point Pressure Wind Wind Speed Wind Gust Humidity Rainfall Rate (Hourly) solar Conditions
00:00 12.7 °C 10.8 °C 1018.5 hPa SW 3.2 km/h 8 km/h 88% 0 mm 0 W/m2
00:10 12.6 °C 10.7 °C 1018.5 hPa WSW 1.6 km/h 6.4 km/h 88% 0 mm 0 W/m2
00:20 12.5 °C 10.6 °C 1018.8 hPa SW 3.2 km/h 9.7 km/h 88% 0 mm 0 W/m2
00:30 12.4 °C 10.6 °C 1018.8 hPa SW 3.2 km/h 9.7 km/h 89% 0 mm 0 W/m2
00:40 12.4 °C 10.6 °C 1018.5 hPa Calm   6.4 km/h 89% 0 mm 0 W/m2
00:50 12.3 °C 10.6 °C 1018.8 hPa ENE 3.2 km/h 4.8 km/h 89% 0 mm 0 W/m2
01:00 12.3 °C 10.6 °C 1018.5 hPa East 1.6 km/h 8 km/h 89% 0 mm 0 W/m2
01:10 12.2 °C 10.4 °C 1018.5 hPa SSE 1.6 km/h 6.4 km/h 89% 0 mm 0 W/m2
01:20 12.1 °C 10.5 °C 1018.5 hPa Calm   3.2 km/h 90% 0 mm 0 W/m2
01:30 12 °C 10.4 °C 1018.5 hPa Calm   8 km/h 90% 0 mm 0 W/m2
01:40 11.9 °C 10.4 °C 1018.5 hPa SSW 1.6 km/h 8 km/h 90% 0 mm 0 W/m2
01:50 11.9 °C 10.3 °C 1018.5 hPa SW 3.2 km/h 8 km/h 90% 0 mm 0 W/m2
02:00 11.9 °C 10.3 °C 1018.2 hPa SSW 1.6 km/h 4.8 km/h 90% 0 mm 0 W/m2
02:10 11.8 °C 10.2 °C 1018.5 hPa Calm   3.2 km/h 90% 0 mm 0 W/m2
02:20 11.7 °C 10.1 °C 1018.2 hPa ESE 1.6 km/h 6.4 km/h 90% 0 mm 0 W/m2
02:30 11.5 °C 10.1 °C 1018.2 hPa Calm   6.4 km/h 91% 0 mm 0 W/m2
02:40 11.4 °C 10 °C 1018.2 hPa Calm   3.2 km/h 91% 0 mm 0 W/m2
02:50 11.3 °C 9.9 °C 1018.2 hPa NE 3.2 km/h 6.4 km/h 91% 0 mm 0 W/m2
03:00 11.3 °C 10.2 °C 1018.2 hPa Calm   8 km/h 93% 0 mm 0 W/m2
03:10 11.3 °C 10.2 °C 1017.8 hPa NE 1.6 km/h 3.2 km/h 93% 0 mm 0 W/m2
03:20 11.3 °C 10.2 °C 1017.8 hPa Calm   3.2 km/h 93% 0 mm 0 W/m2
03:30 11.1 °C 10 °C 1017.8 hPa Calm   1.6 km/h 93% 0 mm 0 W/m2
03:40 11 °C 9.9 °C 1017.8 hPa Calm     93% 0 mm 0 W/m2
Knjazevac, Serbia
Compliments of Weather Underground - 2 mb